East Haven, CT

4:33 PM EST on February 22, 2017 (GMT -0500)
Tweed-New Haven

Weather History for KHVN - February, 2012

Change the Weather History Date:

Wednesday, February 1, 2012

  Actual Average Record
Temperature  
Mean Temperature 51 °F -  
Max Temperature 59 °F 36 °F 59 °F (2016)
Min Temperature 43 °F 23 °F 6 °F (2015)
Degree Days  
Heating Degree Days 14    
Growing Degree Days 1 (Base 50)    
Moisture  
Dew Point 38 °F    
Average Humidity 63    
Maximum Humidity 76    
Minimum Humidity 44    
Precipitation  
Precipitation 0.04 in - - ()
Sea Level Pressure  
Sea Level Pressure 29.92 in    
Wind  
Wind Speed 5 mph (WSW)    
Max Wind Speed 12 mph    
Max Gust Speed 22 mph    
Visibility 10 miles    
Events Rain    
Averages and records for this station are not official NWS values.
T = Trace of Precipitation, MM = Missing Value Source: NWS Daily Summary

Daily Weather History Graph

Daily Weather History Graph

Search for Another Location

Airport or City:

Trip Planner

Search our weather history database for the weather conditions in past years. The results will help you decide how hot, cold, wet, or windy it might be!

Date:

Astronomy

Feb. 01, 2012 Rise Set
Actual Time 7:03 AM EST 5:07 PM EST
Civil Twilight 6:34 AM EST 5:36 PM EST
Nautical Twilight 6:00 AM EST 6:09 PM EST
Astronomical Twilight 5:28 AM EST 6:42 PM EST
Moon 11:32 AM EST (2/1) 1:47 AM EST (2/1)
Length of Visible Light 11h 02m
Length of Day
10h 04m
Waxing Gibbous, 64% of the Moon is Illuminated
Feb 1
Waxing Gibbous
Feb 7
Full
Feb 14
Last Quarter
Feb 21
New
Feb 29
First Quarter

Hourly Weather History & Observations

Time (EST) Temp. Windchill Dew Point Humidity Pressure Visibility Wind Dir Wind Speed Gust Speed Precip Events Conditions
12:53 AM 43.0 °F - 35.1 °F 74% 30.00 in 10.0 mi Calm Calm - N/A   Partly Cloudy
1:53 AM 46.9 °F - 35.1 °F 63% 29.98 in 10.0 mi WSW 3.5 mph - N/A   Clear
2:53 AM 46.0 °F 43.1 °F 35.1 °F 66% 29.97 in 10.0 mi SSW 5.8 mph - N/A   Partly Cloudy
3:53 AM 46.0 °F 44.8 °F 35.1 °F 66% 29.94 in 10.0 mi SW 3.5 mph - N/A   Overcast
4:53 AM 46.9 °F - 35.1 °F 63% 29.93 in 10.0 mi SW 5.8 mph - N/A   Overcast
5:53 AM 46.9 °F - 35.1 °F 63% 29.92 in 10.0 mi SSW 6.9 mph - N/A   Overcast
6:53 AM 46.4 °F 42.9 °F 37.4 °F 71% 29.94 in 6.0 mi Variable 6.9 mph - N/A Rain Rain
7:53 AM 46.0 °F 42.5 °F 39.0 °F 76% 29.92 in 10.0 mi SW 6.9 mph - 0.03 in   Scattered Clouds
8:53 AM 46.9 °F - 39.0 °F 74% 29.93 in 10.0 mi SW 6.9 mph - N/A   Overcast
9:53 AM 48.9 °F - 41.0 °F 74% 29.91 in 10.0 mi SW 9.2 mph 16.1 mph N/A   Overcast
10:53 AM 51.1 °F - 39.9 °F 66% 29.90 in 10.0 mi SW 11.5 mph 17.3 mph N/A   Scattered Clouds
11:53 AM 50.0 °F - 39.9 °F 68% 29.87 in 10.0 mi SW 10.4 mph 18.4 mph N/A   Overcast
12:53 PM 51.1 °F - 39.0 °F 63% 29.85 in 10.0 mi SW 10.4 mph - N/A   Mostly Cloudy
1:53 PM 55.0 °F - 39.9 °F 57% 29.83 in 10.0 mi SW 8.1 mph 16.1 mph N/A   Scattered Clouds
2:53 PM 57.9 °F - 41.0 °F 53% 29.84 in 10.0 mi West 9.2 mph - N/A   Mostly Cloudy
3:53 PM 59.0 °F - 39.0 °F 48% 29.85 in 10.0 mi West 8.1 mph - N/A   Scattered Clouds
4:53 PM 59.0 °F - 37.0 °F 44% 29.87 in 10.0 mi West 8.1 mph 21.9 mph N/A   Clear
5:53 PM 54.0 °F - 37.9 °F 55% 29.89 in 10.0 mi WSW 6.9 mph 16.1 mph N/A   Clear
6:53 PM 53.1 °F - 37.9 °F 57% 29.91 in 10.0 mi Variable 3.5 mph - N/A   Clear
7:53 PM 54.0 °F - 37.9 °F 55% 29.91 in 10.0 mi SW 5.8 mph - N/A   Clear
8:53 PM 50.0 °F - 37.9 °F 63% 29.94 in 10.0 mi West 4.6 mph - N/A   Clear
9:53 PM 48.0 °F - 37.9 °F 68% 29.96 in 10.0 mi North 11.5 mph - N/A   Clear
10:53 PM 46.9 °F - 37.0 °F 68% 29.99 in 10.0 mi NNW 4.6 mph - N/A   Clear
11:53 PM 46.0 °F 42.5 °F 35.1 °F 66% 30.01 in 10.0 mi NNW 6.9 mph - N/A   Clear